Torna al catalogo

SCOUT G-1 DEB

AttivoPO
NORAD 22706·DEBRIS·🇺🇸 United States

Lanciato Jun 25, 1993 da Vandenberg Space Force Base

Loading…

Prossimi Passaggi (prossime 24 ore)

TLE

AggiornatoSource: Space-Track

Epoca: Sep 14, 2026, 09:40 UTC

1 22706U 93041C   26257.40292432  .00000785  00000-0  20942-3 0  9992
2 22706  89.2748  47.5621 0029191  94.0613 295.6693 14.47319414742828

Traccia SCOUT G-1 DEB in tempo reale con AllMySat

Download on the App Store